CST,Max TemperatureF,Mean TemperatureF,Min TemperatureF,Max Dew PointF,MeanDew PointF,Min DewpointF,Max Humidity, Mean Humidity, Min Humidity, Max Sea Level PressureIn, Mean Sea Level PressureIn, Min Sea Level PressureIn, Max VisibilityMiles, Mean VisibilityMiles, Min VisibilityMiles, Max Wind SpeedMPH, Mean Wind SpeedMPH, Max Gust SpeedMPH,PrecipitationIn, CloudCover, Events, WindDirDegrees
2012-11-1,75,53,33,43,38,32,100,68,27,30.08,30.01,29.94,10,10,9,9,2,,0.00,0,,212
2012-11-2,80,58,37,53,47,37,97,69,38,29.98,29.93,29.88,10,10,10,13,2,,0.00,0,,201
2012-11-3,66,54,39,54,43,35,83,59,41,30.16,30.05,29.91,10,10,10,14,8,18,0.00,0,,308
2012-11-4,68,49,32,42,37,31,100,69,32,30.22,30.15,30.09,10,10,6,5,1,,0.00,0,,9
2012-11-5,61,54,45,47,42,39,83,71,50,30.08,30.03,29.98,10,10,7,15,7,24,0.01,6,Rain,280
2012-11-6,59,46,33,40,38,32,96,74,46,30.12,30.08,30.02,10,10,9,12,5,18,0.00,4,,301
2012-11-7,60,44,28,33,30,26,96,68,29,30.19,30.14,30.09,10,10,10,14,3,20,0.00,0,,332
2012-11-8,66,47,28,41,35,27,96,60,32,30.16,30.08,29.99,10,10,10,16,5,21,0.00,0,,165
2012-11-9,72,64,55,56,52,42,80,66,57,30.02,29.97,29.90,10,10,10,21,11,29,0.00,0,,187
2012-11-10,73,66,59,55,53,49,78,63,42,30.01,29.92,29.83,10,10,10,25,15,37,0.00,0,,178
2012-11-11,66,50,33,61,47,28,100,86,70,30.25,29.96,29.79,10,8,2,25,14,44,0.78,7,Rain,281
2012-11-12,48,36,25,27,24,20,92,69,37,30.52,30.43,30.28,10,10,10,13,4,,0.00,0,,326
2012-11-13,55,38,21,31,25,20,92,67,28,30.55,30.47,30.37,10,10,10,4,1,,0.00,0,,180
2012-11-14,55,40,26,31,27,23,96,68,28,30.46,30.38,30.32,10,10,10,6,1,,0.00,0,,218
2012-11-15,59,42,26,33,28,24,92,69,29,30.39,30.35,30.30,10,10,9,6,0,,0.00,0,,85
2012-11-16,62,44,26,34,29,25,96,69,29,30.47,30.41,30.37,10,10,9,8,1,,0.00,0,,55
2012-11-17,63,44,26,35,27,24,96,65,24,30.47,30.39,30.34,10,10,8,10,2,,0.00,0,,183
2012-11-18,64,46,28,35,29,25,89,54,23,30.35,30.29,30.22,10,10,10,12,3,17,0.00,0,,167
2012-11-19,61,52,42,46,42,35,93,71,49,30.25,30.20,30.14,10,10,8,12,6,22,0.10,4,Rain,184
2012-11-20,69,53,37,51,41,35,96,73,38,30.25,30.19,30.14,10,10,8,9,4,,0.00,0,,281
2012-11-21,73,50,28,43,34,28,100,70,22,30.31,30.23,30.13,10,9,2,7,1,,0.00,0,,185
2012-11-22,68,58,48,52,44,38,82,57,42,30.15,30.07,29.99,10,10,10,20,8,29,0.02,3,Thunderstorm,200
2012-11-23,57,42,25,44,27,19,85,56,38,30.45,30.38,30.19,10,10,10,17,9,28,0.00,1,,340
2012-11-24,54,36,19,22,18,10,92,55,22,30.44,30.27,30.07,10,10,10,9,1,,0.00,0,,197
2012-11-25,64,50,37,35,28,21,86,48,32,30.05,29.96,29.86,10,10,10,21,10,25,0.00,0,,199
2012-11-26,53,44,36,49,39,28,100,85,67,30.34,30.09,29.92,10,7,2,10,2,22,0.06,7,Rain,26
2012-11-27,48,36,25,28,26,23,92,74,39,30.47,30.38,30.32,10,10,8,6,1,,0.00,0,,45
2012-11-28,57,39,21,32,26,19,96,65,33,30.47,30.37,30.25,10,10,10,12,2,17,0.00,0,,185
2012-11-29,63,50,37,33,30,26,73,45,30,30.24,30.17,30.09,10,10,10,21,9,28,0.00,0,,184
2012-11-30,67,57,46,53,44,31,86,68,50,30.15,30.10,30.05,10,10,8,18,9,23,0.00,0,,185